GW3945 Weather Reports


time (UTC)temp
F
wind
direction
speed
knots
gust
knots
rain 1hr
in
rain 24hr
in
rain mn
in
humidity
%
barometer
mb
20260906123324 71 218 0.0 0.0 0.00 0.00 0.00 99 1012.1
20260906122823 71 218 0.0 0.0 0.00 0.00 0.00 99 1012.0
20260906122318 71 218 0.0 0.0 0.00 0.00 0.00 99 1012.1
20260906121815 71 217 0.0 0.0 0.00 0.00 0.00 99 1012.1
20260906121311 71 217 0.0 0.0 0.00 0.00 0.00 99 1012.1
20260906120807 71 218 0.0 0.0 0.00 0.00 0.00 99 1011.9
20260906120303 71 218 0.0 0.0 0.00 0.00 0.00 99 1011.9
20260906115759 70 217 0.0 0.0 0.00 0.00 0.00 99 1011.9
20260906115254 70 216 0.0 0.0 0.00 0.00 0.00 99 1011.6
20260906114752 70 216 0.0 0.0 0.00 0.00 0.00 98 1011.8
20260906114242 70 216 0.0 0.0 0.00 0.00 0.00 98 1011.5
20260906113737 70 217 0.0 0.0 0.00 0.00 0.00 98 1011.6
20260906113237 71 217 0.0 0.0 0.00 0.00 0.00 98 1011.5
20260906112731 71 217 0.0 0.0 0.00 0.00 0.00 98 1011.4
20260906112227 71 218 0.0 0.0 0.00 0.00 0.00 98 1011.2
20260906111727 71 218 0.0 0.0 0.00 0.00 0.00 98 1011.4
20260906111221 71 217 0.0 0.0 0.00 0.00 0.00 98 1011.4
20260906110717 71 217 0.0 0.0 0.00 0.00 0.00 98 1011.2
20260906110213 71 217 0.0 0.0 0.00 0.00 0.00 97 1011.2
20260906105711 71 218 0.0 0.0 0.00 0.00 0.00 97 1010.9
20260906105207 71 213 0.0 0.0 0.00 0.00 0.00 97 1011.3
20260906104707 71 210 0.0 0.0 0.00 0.00 0.00 97 1011.2
20260906104201 71 210 0.0 0.0 0.00 0.00 0.00 98 1011.0
20260906103658 71 210 0.0 0.0 0.00 0.00 0.00 97 1011.0
20260906103154 71 211 0.0 0.0 0.00 0.00 0.00 97 1011.1
20260906102649 71 211 0.0 0.0 0.00 0.00 0.00 97 1010.9
20260906102148 72 211 0.0 0.0 0.00 0.00 0.00 97 1010.8
20260906101648 71 211 0.0 0.0 0.00 0.00 0.00 97 1010.9
20260906101143 71 210 0.0 0.0 0.00 0.00 0.00 97 1010.9
20260906100639 71 209 0.0 0.0 0.00 0.00 0.00 97 1011.0
20260906100133 72 209 0.0 0.0 0.00 0.00 0.00 97 1010.9
20260906095628 72 210 0.0 0.0 0.00 0.00 0.00 96 1010.9
20260906095124 72 210 0.0 0.0 0.00 0.00 0.00 96 1010.8
20260906094622 72 210 0.0 0.0 0.00 0.00 0.00 96 1010.9
20260906094118 72 210 0.0 0.0 0.00 0.00 0.00 95 1011.1
20260906093614 72 227 0.0 0.0 0.00 0.00 0.00 95 1011.1
20260906093108 72 209 0.0 0.0 0.00 0.00 0.00 95 1011.0
20260906092603 72 209 0.0 0.0 0.00 0.00 0.00 95 1010.9
20260906092059 72 209 0.0 0.0 0.00 0.00 0.00 95 1010.8
20260906091554 72 211 0.0 0.0 0.00 0.00 0.00 96 1010.9
20260906091051 72 211 0.0 0.0 0.00 0.00 0.00 96 1010.8
20260906090551 72 211 0.0 0.0 0.00 0.00 0.00 94 1010.6
20260906090046 73 211 0.0 0.0 0.00 0.00 0.00 94 1010.8
20260906085545 73 211 0.0 0.0 0.00 0.00 0.00 94 1010.7
20260906085044 73 209 0.0 0.0 0.00 0.00 0.00 94 1010.8
20260906084539 73 210 0.0 0.0 0.00 0.00 0.00 94 1010.5
20260906084038 73 211 0.0 0.0 0.00 0.00 0.00 94 1010.7
20260906083534 73 211 0.0 0.0 0.00 0.00 0.00 94 1010.7
20260906083033 73 208 0.0 0.0 0.00 0.00 0.00 94 1010.8
20260906082528 73 211 0.0 0.0 0.00 0.00 0.00 93 1010.6
20260906082024 73 207 0.0 0.0 0.00 0.00 0.00 93 1010.7
20260906081520 73 205 0.0 0.0 0.00 0.00 0.00 93 1010.7
20260906081016 73 206 0.0 0.0 0.00 0.00 0.00 92 1010.8
20260906080512 73 207 0.0 0.0 0.00 0.00 0.00 92 1010.7
20260906080008 74 208 0.0 0.0 0.00 0.00 0.00 93 1010.7
20260906075502 74 205 0.0 0.0 0.00 0.00 0.00 90 1010.6
20260906074956 74 207 0.0 0.0 0.00 0.00 0.00 89 1010.8
20260906074451 74 210 0.0 0.0 0.00 0.00 0.00 89 1010.7
20260906073949 74 207 0.0 0.0 0.00 0.00 0.00 90 1010.4
20260906073444 74 207 0.0 0.0 0.00 0.00 0.00 89 1010.6
20260906072941 74 206 0.0 0.0 0.00 0.00 0.00 89 1010.8
20260906072436 75 208 0.0 0.0 0.00 0.00 0.00 89 1010.6
20260906071932 75 206 0.0 0.0 0.00 0.00 0.00 88 1010.9
20260906071427 74 208 0.0 0.0 0.00 0.00 0.00 88 1010.9
20260906070923 74 207 0.0 0.0 0.00 0.00 0.00 90 1010.9
20260906070419 75 206 0.0 0.0 0.00 0.00 0.00 90 1010.8
20260906065915 75 206 0.0 0.0 0.00 0.00 0.00 89 1010.9
20260906065409 75 207 0.0 0.0 0.00 0.00 0.00 90 1010.9
20260906064905 75 205 0.0 0.0 0.00 0.00 0.00 90 1011.0
20260906064401 75 207 0.0 0.0 0.00 0.00 0.00 91 1010.7
20260906063900 75 206 0.0 0.9 0.00 0.00 0.00 92 1011.0
20260906063356 75 205 0.0 0.0 0.00 0.00 0.00 91 1010.8
20260906062851 75 207 0.0 0.0 0.00 0.00 0.00 92 1011.1
20260906062350 75 206 0.0 0.0 0.00 0.00 0.00 92 1010.9
20260906061846 75 209 0.0 0.0 0.00 0.00 0.00 92 1011.0
20260906061342 75 202 0.0 0.0 0.00 0.00 0.00 92 1011.5
20260906060836 74 201 0.0 0.0 0.00 0.00 0.00 93 1011.5
20260906060335 74 204 0.0 0.0 0.00 0.00 0.00 95 1011.6
20260906055830 74 206 0.0 0.0 0.00 0.00 0.00 94 1011.6
20260906055326 74 203 0.0 0.0 0.00 0.00 0.00 94 1011.6
20260906054820 74 207 0.0 0.0 0.00 0.00 0.00 96 1011.6
20260906054315 74 208 0.0 0.0 0.00 0.00 0.00 95 1011.8
20260906053812 74 209 0.0 0.0 0.00 0.00 0.00 94 1011.7
20260906053307 74 209 0.0 0.0 0.00 0.00 0.00 94 1011.8
20260906052802 74 196 0.0 0.0 0.00 0.00 0.00 94 1011.9
20260906052259 75 204 0.0 0.0 0.00 0.00 0.00 95 1012.0
20260906051756 75 202 0.0 0.0 0.00 0.00 0.00 94 1011.9
20260906051255 74 206 0.0 0.0 0.00 0.00 0.00 94 1011.8
20260906050750 74 204 0.0 0.0 0.00 0.00 0.00 95 1011.6
20260906050246 73 203 0.0 0.0 0.00 0.00 0.00 97 1011.8
20260906045744 73 206 0.0 0.0 0.00 0.22 0.22 98 1011.7
20260906045239 74 207 0.0 0.0 0.00 0.22 0.22 99 1011.7
20260906044735 74 216 0.0 0.0 0.00 0.22 0.22 99 1011.7
20260906044230 75 212 0.0 0.0 0.00 0.22 0.22 99 1011.5
20260906043726 75 224 0.0 0.0 0.00 0.22 0.22 99 1011.7
20260906043222 75 212 0.0 0.0 0.00 0.22 0.22 99 1011.6
20260906042721 75 254 0.0 0.0 0.00 0.22 0.22 99 1011.9
20260906042220 75 215 0.0 0.0 0.00 0.22 0.22 99 1011.9
20260906041716 75 258 0.0 0.0 0.00 0.22 0.22 99 1011.9
20260906041211 75 231 0.9 1.7 0.00 0.22 0.22 99 1011.7
20260906040707 74 235 0.0 0.0 0.00 0.22 0.22 99 1011.3
20260906040201 75 225 0.0 0.0 0.00 0.22 0.22 99 1011.2
20260906035657 74 227 0.0 0.0 0.00 0.22 0.22 99 1011.2
20260906035153 75 224 0.0 0.0 0.00 0.22 0.22 99 1011.1
20260906034647 74 224 0.0 0.0 0.00 0.22 0.22 99 1011.3
20260906034142 75 228 0.0 0.0 0.00 0.22 0.22 99 1011.4
20260906033638 75 220 0.0 0.0 0.00 0.22 0.22 99 1011.5
20260906033138 75 220 0.0 0.0 0.00 0.22 0.22 99 1011.7
20260906032635 75 228 0.0 0.0 0.00 0.22 0.22 99 1011.7
20260906032134 75 213 0.0 0.0 0.00 0.22 0.22 99 1011.6
20260906031629 75 214 0.0 0.0 0.00 0.22 0.22 99 1011.6
20260906031125 75 217 0.0 0.0 0.00 0.22 0.22 98 1011.6
20260906030624 74 219 0.0 0.9 0.00 0.22 0.22 98 1011.5
20260906030120 74 207 0.0 0.0 0.00 0.22 0.22 99 1011.6
20260906025619 75 298 0.0 0.0 0.00 0.22 0.22 99 1011.6
20260906025118 74 263 1.7 1.7 0.00 0.22 0.22 99 1011.2
20260906024613 74 228 0.0 0.0 0.00 0.22 0.22 98 1010.7
20260906024107 74 217 0.0 0.0 0.00 0.22 0.22 98 1010.9
20260906023603 74 217 0.0 0.0 0.00 0.22 0.22 98 1010.8
20260906023057 74 223 0.0 0.0 0.00 0.22 0.22 98 1010.5
20260906022553 74 231 0.0 0.0 0.00 0.22 0.22 98 1010.3
20260906022048 75 216 0.0 0.0 0.00 0.22 0.22 97 1010.4
20260906021544 75 248 0.0 0.0 0.00 0.22 0.22 97 1010.2
20260906021043 75 223 0.0 0.0 0.00 0.22 0.22 97 1010.3
20260906020542 75 217 0.0 0.0 0.00 0.22 0.22 97 1010.4
20260906020037 75 216 0.0 0.0 0.00 0.22 0.22 97 1010.4
20260906015536 76 283 1.7 1.7 0.12 0.22 0.22 96 1010.2
20260906015036 75 288 2.6 2.6 1.28 0.22 0.22 95 1010.2
20260906014531 75 187 1.7 2.6 1.25 0.21 0.21 94 1009.9
20260906014026 79 175 0.0 0.0 0.12 0.02 0.02 87 1010.1
20260906013522 80 207 0.0 0.0 0.00 0.00 0.00 78 1010.2
20260906013017 81 207 0.0 0.0 0.00 0.00 0.00 78 1010.3
20260906012512 82 205 0.0 0.0 0.00 0.00 0.00 77 1010.3
20260906012011 83 198 0.9 0.9 0.00 0.00 0.00 73 1010.4
20260906011508 84 274 0.0 0.0 0.00 0.00 0.00 72 1010.1
20260906011002 84 222 0.0 0.0 0.00 0.00 0.00 71 1010.2
20260906010457 84 220 0.0 0.0 0.00 0.00 0.00 69 1009.7
20260906005954 85 229 0.0 0.0 0.00 0.00 0.00 69 1009.6
20260906005453 85 205 0.0 0.0 0.00 0.00 0.00 64 1009.8
20260906004951 85 207 0.0 0.0 0.00 0.00 0.00 68 1009.8
20260906004446 85 210 0.0 0.0 0.00 0.00 0.00 69 1009.8
20260906003941 86 210 0.0 0.0 0.00 0.00 0.00 66 1009.8
20260906003436 86 211 0.0 0.0 0.00 0.00 0.00 65 1010.0
20260906002931 86 211 0.0 0.0 0.00 0.00 0.00 65 1010.5
20260906002431 86 205 0.0 0.0 0.00 0.00 0.00 66 1010.3
20260906001926 87 193 0.0 0.0 0.00 0.00 0.00 70 1010.0
20260906001422 87 181 1.7 1.7 0.00 0.00 0.00 67 1010.4
20260906000917 86 199 0.0 0.0 0.00 0.00 0.00 73 1010.1
20260906000412 87 198 0.0 0.0 0.00 0.00 0.00 75 1010.1
20260905235907 87 203 0.0 0.0 0.00 0.00 0.00 75 1010.0
20260905235401 87 202 0.0 0.0 0.00 0.00 0.00 78 1010.0
20260905234856 88 220 0.0 0.0 0.00 0.00 0.00 76 1009.8
20260905234351 90 221 0.0 0.0 0.00 0.00 0.00 69 1009.9
20260905233846 91 224 0.0 0.0 0.00 0.00 0.00 63 1009.9
20260905233342 91 224 0.0 0.0 0.00 0.00 0.00 62 1009.9
20260905232841 92 227 0.0 0.0 0.00 0.00 0.00 61 1009.7
20260905232337 92 224 0.0 0.0 0.00 0.00 0.00 60 1009.8
20260905231832 92 232 0.0 0.0 0.00 0.00 0.00 60 1009.6
20260905231333 92 227 0.0 0.0 0.00 0.00 0.00 60 1009.7
20260905230830 92 223 0.0 0.0 0.00 0.00 0.00 61 1009.5
20260905230327 92 244 0.0 0.0 0.00 0.00 0.00 60 1009.6
20260905225826 92 253 0.0 0.0 0.00 0.00 0.00 61 1009.4
20260905225321 93 239 0.0 0.0 0.00 0.00 0.00 61 1009.6
20260905224816 93 225 0.0 0.0 0.00 0.00 0.00 58 1009.8
20260905224312 94 227 0.0 0.0 0.00 0.00 0.00 56 1009.7
20260905223806 94 224 0.0 0.0 0.00 0.00 0.00 56 1009.5
20260905223304 94 230 0.0 0.0 0.00 0.00 0.00 55 1009.5
20260905222759 94 226 0.0 0.0 0.00 0.00 0.00 54 1009.6
20260905222258 94 222 0.0 0.0 0.00 0.00 0.00 54 1009.8
20260905221754 95 224 0.0 0.0 0.00 0.00 0.00 52 1009.6
20260905221250 95 222 0.0 0.0 0.00 0.00 0.00 51 1009.6
20260905220746 96 228 0.0 0.0 0.00 0.00 0.00 51 1009.6
20260905220242 96 222 0.0 0.0 0.00 0.00 0.00 50 1009.7
20260905215741 97 249 0.0 0.0 0.00 0.00 0.00 48 1009.7
20260905215237 97 234 0.0 0.0 0.00 0.00 0.00 48 1009.4
20260905214733 98 258 0.0 0.0 0.00 0.00 0.00 48 1009.6
20260905214228 101 222 0.0 0.0 0.00 0.00 0.00 47 1009.7
20260905213718 100 220 0.0 0.0 0.00 0.00 0.00 44 1009.7
20260905213214 99 230 0.0 0.0 0.00 0.00 0.00 47 1009.6
20260905212709 100 227 0.0 0.0 0.00 0.00 0.00 45 1009.6
20260905212208 100 225 0.0 0.0 0.00 0.00 0.00 43 1009.7
20260905211703 100 221 0.0 0.0 0.00 0.00 0.00 45 1009.8
20260905211158 100 225 0.0 0.9 0.00 0.00 0.00 45 1009.7
20260905210655 99 222 0.0 0.0 0.00 0.00 0.00 47 1009.7
20260905210154 99 228 0.0 0.0 0.00 0.00 0.00 47 1009.9
20260905205654 97 223 0.0 0.0 0.00 0.00 0.00 48 1010.0
20260905205153 97 220 0.0 0.0 0.00 0.00 0.00 49 1010.0
20260905204653 97 267 0.0 0.0 0.00 0.00 0.00 49 1010.2
20260905204148 97 266 0.0 0.0 0.00 0.00 0.00 53 1010.1
20260905203643 97 218 0.0 0.0 0.00 0.00 0.00 52 1010.3
20260905203138 96 225 0.0 0.0 0.00 0.00 0.00 50 1010.2
20260905202634 96 232 0.0 0.9 0.00 0.00 0.00 50 1010.1
20260905202129 96 253 0.0 0.9 0.00 0.00 0.00 51 1010.4
20260905201624 96 226 0.0 0.0 0.00 0.00 0.00 50 1010.4
20260905201124 96 209 0.0 0.0 0.00 0.00 0.00 51 1010.5
20260905200620 96 228 0.0 0.0 0.00 0.00 0.00 50 1010.7
20260905200115 96 223 0.0 0.0 0.00 0.00 0.00 50 1010.8
20260905195614 96 230 0.0 0.0 0.00 0.00 0.00 51 1011.0
20260905195109 96 250 0.0 0.9 0.00 0.00 0.00 52 1011.1
20260905194609 96 215 0.0 0.0 0.00 0.00 0.00 52 1011.1
20260905194108 96 278 0.0 0.9 0.00 0.00 0.00 52 1011.0
20260905193603 96 225 0.0 0.0 0.00 0.00 0.00 50 1011.2
20260905193058 96 198 0.0 0.0 0.00 0.00 0.00 52 1011.0
20260905192553 96 203 1.7 1.7 0.00 0.00 0.00 50 1011.1
20260905192050 95 288 0.0 0.0 0.00 0.00 0.00 51 1011.1
20260905191548 96 233 0.0 0.0 0.00 0.00 0.00 51 1011.2
20260905191042 96 204 0.0 0.0 0.00 0.00 0.00 53 1011.1
20260905190540 96 222 0.0 0.0 0.00 0.00 0.00 52 1011.1
20260905190040 96 234 0.0 0.0 0.00 0.00 0.00 54 1011.3
20260905185539 95 224 0.0 0.0 0.00 0.00 0.00 54 1011.4
20260905185038 95 234 0.0 0.0 0.00 0.00 0.00 52 1011.5
20260905184533 95 225 0.0 0.0 0.00 0.00 0.00 54 1011.6
20260905184031 94 246 0.0 0.0 0.00 0.00 0.00 56 1011.8
20260905183526 94 207 0.0 0.0 0.00 0.00 0.00 58 1011.8
20260905183021 94 285 2.6 2.6 0.00 0.00 0.00 54 1011.8
20260905182521 94 225 0.0 0.0 0.00 0.00 0.00 56 1012.1
20260905182015 94 231 0.0 0.0 0.00 0.00 0.00 55 1012.0
20260905181510 95 277 0.9 1.7 0.00 0.00 0.00 53 1011.9
20260905181009 95 223 0.0 0.0 0.00 0.00 0.00 55 1012.3
20260905180504 95 230 0.0 0.0 0.00 0.00 0.00 55 1012.2
20260905175959 95 233 0.0 0.0 0.00 0.00 0.00 54 1012.3
20260905175458 94 244 0.9 1.7 0.00 0.00 0.00 54 1012.3
20260905174954 94 237 0.0 0.0 0.00 0.00 0.00 55 1012.4
20260905174449 94 231 0.0 0.0 0.00 0.00 0.00 55 1012.4
20260905173945 94 234 0.0 0.0 0.00 0.00 0.00 57 1012.4
20260905173441 93 265 0.0 0.0 0.00 0.00 0.00 60 1012.2
20260905172936 93 218 0.0 0.0 0.00 0.00 0.00 60 1012.6
20260905172434 93 286 0.0 0.9 0.00 0.00 0.00 59 1012.6
20260905171930 93 229 0.0 0.0 0.00 0.00 0.00 59 1012.8
20260905171427 93 229 0.0 0.0 0.00 0.00 0.00 61 1012.6
20260905170923 93 220 0.0 0.0 0.00 0.00 0.00 65 1012.6
20260905170419 92 210 0.0 0.0 0.00 0.00 0.00 62 1012.7
20260905165918 92 291 1.7 1.7 0.00 0.00 0.00 62 1012.8
20260905165414 92 254 0.9 0.9 0.00 0.00 0.00 64 1012.9
20260905164909 92 251 0.0 0.0 0.00 0.00 0.00 63 1013.0
20260905164409 91 219 0.0 0.0 0.00 0.00 0.00 64 1012.6
20260905163904 91 222 0.0 0.0 0.00 0.00 0.00 64 1012.8
20260905163400 91 234 0.0 0.0 0.00 0.00 0.00 63 1012.9
20260905162855 91 223 0.0 0.0 0.00 0.00 0.00 64 1013.2
20260905162350 91 240 0.9 0.9 0.00 0.00 0.00 66 1013.2
20260905161845 91 221 0.0 0.0 0.00 0.00 0.00 66 1013.4
20260905161344 91 222 0.0 0.0 0.00 0.00 0.00 66 1013.4
20260905160843 91 202 0.0 0.0 0.00 0.00 0.00 66 1013.3
20260905160337 90 202 0.0 0.0 0.00 0.00 0.00 67 1013.3
20260905155831 90 197 0.0 0.0 0.00 0.00 0.00 72 1013.4
20260905155330 89 197 0.0 0.0 0.00 0.00 0.00 73 1013.4
20260905154825 88 196 0.0 0.0 0.00 0.00 0.00 71 1013.6
20260905154320 88 195 0.0 0.0 0.00 0.00 0.00 76 1013.4
20260905153815 87 192 0.0 0.0 0.00 0.00 0.00 80 1013.5
20260905153312 87 196 0.0 0.0 0.00 0.00 0.00 80 1013.7
20260905152806 86 197 0.0 0.0 0.00 0.00 0.00 77 1013.7
20260905152306 86 197 0.0 0.0 0.00 0.00 0.00 81 1013.5
20260905151800 86 197 0.0 0.0 0.00 0.00 0.00 81 1013.7
20260905151256 85 198 0.0 0.0 0.00 0.00 0.00 81 1013.8
20260905150750 85 199 0.0 0.0 0.00 0.00 0.00 82 1013.6
20260905150250 84 199 0.0 0.0 0.00 0.00 0.00 84 1013.7
20260905145747 84 199 0.0 0.0 0.00 0.00 0.00 85 1013.7
20260905145242 83 199 0.0 0.0 0.00 0.00 0.00 85 1013.8
20260905144741 82 199 0.0 0.0 0.00 0.00 0.00 86 1013.7
20260905144237 82 200 0.0 0.0 0.00 0.00 0.00 87 1013.6
20260905143735 81 199 0.0 0.0 0.00 0.00 0.00 88 1013.9
20260905143235 80 199 0.0 0.0 0.00 0.00 0.00 89 1013.9
20260905142733 78 198 0.0 0.0 0.00 0.00 0.00 91 1013.9
20260905142228 78 203 0.0 0.0 0.00 0.00 0.00 92 1013.9
20260905141724 78 201 0.0 0.0 0.00 0.00 0.00 93 1014.0
20260905141220 78 201 0.0 0.0 0.00 0.00 0.00 93 1014.0
20260905140715 77 201 0.0 0.0 0.00 0.00 0.00 93 1014.0
20260905140209 77 201 0.0 0.0 0.00 0.00 0.00 93 1014.1
20260905135703 77 201 0.0 0.0 0.00 0.00 0.00 93 1014.0
20260905135200 77 201 0.0 0.0 0.00 0.00 0.00 93 1013.9
20260905134659 77 201 0.0 0.0 0.00 0.00 0.00 91 1013.9
20260905134158 77 201 0.0 0.0 0.00 0.00 0.00 92 1013.8
20260905133653 77 201 0.0 0.0 0.00 0.00 0.00 93 1014.0
20260905133154 77 200 0.0 0.0 0.00 0.00 0.00 94 1014.2
20260905132653 77 200 0.0 0.0 0.00 0.00 0.00 93 1014.0
20260905132148 77 200 0.0 0.0 0.00 0.00 0.00 92 1013.9
20260905131643 77 200 0.0 0.0 0.00 0.00 0.00 91 1013.9
20260905131138 76 200 0.0 0.0 0.00 0.00 0.00 92 1013.9
20260905130633 76 200 0.0 0.0 0.00 0.00 0.00 93 1014.1
20260905130132 76 201 0.0 0.0 0.00 0.00 0.00 93 1014.0
20260905125626 75 201 0.0 0.0 0.00 0.00 0.00 94 1013.8
20260905125123 75 201 0.0 0.0 0.00 0.00 0.00 95 1013.9
20260905124619 75 201 0.0 0.0 0.00 0.00 0.00 96 1014.2
20260905124115 75 201 0.0 0.0 0.00 0.00 0.00 96 1014.0
20260905123609 75 201 0.0 0.0 0.00 0.00 0.00 96 1013.9